Weather History for Asheville, NC

Change the Weather History Date:

Wednesday, March 5, 2008

  Actual Average Record
Temperature  
Mean Temperature 42 °F 44 °F  
Max Temperature 49 °F 55 °F 78 °F (1955)
Min Temperature 34 °F 33 °F 5 °F (1960)
Degree Days  
Heating Degree Days 23 21  
Month to date heating degree days 94 106  
Since 1 July heating degree days 3077 3323  
Cooling Degree Days 0 0  
Month to date cooling degree days 0 0  
Year to date cooling degree days 0 0  
Moisture  
Dew Point 31 °F    
Average Humidity 69    
Maximum Humidity 82    
Minimum Humidity 56    
Precipitation  
Precipitation 0.00 in 0.12 in 2.34 in (1963)
Month to date precipitation 1.62 0.60  
Year to date precipitation 7.97 8.03  
Snow  
Snow 0.00 in 0.00 in 1.60 in (1912)
Month to date snowfall 0.0 0.3  
Since 1 July snowfall 3.8 7.6  
Snow Depth -    
Sea Level Pressure  
Sea Level Pressure 29.88 in    
Wind  
Wind Speed 13 mph (NNW)    
Max Wind Speed 26 mph    
Max Gust Speed 33 mph    
Visibility 10 miles    
Events      
T = Trace of Precipitation, MM = Missing Value Source: NWS Daily Summary

Daily Weather History Graph

Daily Weather History Graph

Search for Another Location

Airport:

Trip Planner

Search our weather history database for the weather conditions in past years. The results will help you decide how hot, cold, wet, or windy it might be!

Date:

Astronomy

Mar. 05, 2008 Rise Set
Actual Time 6:54 AM EST 6:29 PM EST
Civil Twilight 6:28 AM EST 6:54 PM EST
Nautical Twilight 5:59 AM EST 7:24 PM EST
Astronomical Twilight 5:29 AM EST 7:54 PM EST
Moon 5:43 AM EST (3/5) 4:31 PM EST (3/5)
Length of Visible Light 12h 26m
Length of Day
11h 35m
Waning Crescent, 5% of the Moon is Illuminated
Mar 5
Waning Crescent
Mar 7
New
Mar 14
First Quarter
Mar 21
Full
Mar 29
Last Quarter

Hourly Weather History & Observations

Time (EST) Temp. Windchill Dew Point Humidity Pressure Visibility Wind Dir Wind Speed Gust Speed Precip Events Conditions
12:54 AM 42.1 °F 33.9 °F 35.1 °F 76% 29.63 in 10.0 mi North 17.3 mph 23.0 mph N/A   Clear
1:54 AM 39.0 °F 29.6 °F 34.0 °F 82% 29.67 in 10.0 mi NNW 18.4 mph 25.3 mph N/A   Clear
2:54 AM 37.0 °F 27.7 °F 32.0 °F 82% 29.70 in 10.0 mi North 16.1 mph 23.0 mph N/A   Clear
3:21 AM 35.6 °F 27.1 °F 30.2 °F 81% 29.74 in 10.0 mi North 12.7 mph 19.6 mph N/A   Mostly Cloudy
3:54 AM 36.0 °F 27.1 °F 30.9 °F 82% 29.71 in 10.0 mi North 13.8 mph 20.7 mph N/A   Mostly Cloudy
4:54 AM 35.1 °F 26.4 °F 30.0 °F 82% 29.77 in 10.0 mi NNW 12.7 mph - N/A   Overcast
5:24 AM 35.6 °F 28.0 °F 28.4 °F 75% 29.77 in 10.0 mi North 10.4 mph - N/A   Scattered Clouds
5:54 AM 35.1 °F 29.3 °F 28.9 °F 78% 29.78 in 10.0 mi North 6.9 mph - N/A   Clear
6:54 AM 34.0 °F 23.4 °F 28.9 °F 82% 29.79 in 10.0 mi NNW 17.3 mph 23.0 mph N/A   Clear
7:37 AM 33.8 °F 22.5 °F 28.4 °F 81% 29.84 in 10.0 mi NNW 19.6 mph 26.5 mph N/A   Mostly Cloudy
7:54 AM 34.0 °F 22.4 °F 28.0 °F 79% 29.84 in 10.0 mi North 20.7 mph 25.3 mph N/A   Overcast
8:54 AM 34.0 °F 22.1 °F 28.0 °F 79% 29.88 in 10.0 mi North 21.9 mph 32.2 mph N/A   Overcast
9:54 AM 33.8 °F 22.8 °F 28.4 °F 81% 29.89 in 10.0 mi NNW 18.4 mph 28.8 mph N/A   Overcast
10:54 AM 36.0 °F 26.3 °F 28.9 °F 76% 29.94 in 10.0 mi North 16.1 mph 23.0 mph N/A   Overcast
11:07 AM 35.6 °F 25.9 °F 28.4 °F 75% 29.93 in 10.0 mi North 16.1 mph 25.3 mph N/A   Scattered Clouds
11:54 AM 39.0 °F 29.9 °F 30.0 °F 70% 29.94 in 10.0 mi North 17.3 mph 23.0 mph N/A   Scattered Clouds
12:54 PM 43.0 °F 36.4 °F 33.1 °F 68% 29.94 in 10.0 mi NNW 12.7 mph - N/A   Clear
1:54 PM 45.0 °F 38.9 °F 33.1 °F 63% 29.92 in 10.0 mi North 12.7 mph 19.6 mph N/A   Clear
2:54 PM 46.9 °F - 33.1 °F 59% 29.92 in 10.0 mi North 15.0 mph 20.7 mph N/A   Clear
3:54 PM 48.0 °F - 33.1 °F 56% 29.93 in 10.0 mi North 11.5 mph - N/A   Clear
4:54 PM 48.9 °F - 33.1 °F 54% 29.94 in 10.0 mi NNW 13.8 mph - N/A   Clear
5:54 PM 48.0 °F - 33.1 °F 56% 29.96 in 10.0 mi NNW 10.4 mph - N/A   Clear
6:54 PM 44.1 °F 39.5 °F 33.1 °F 65% 29.99 in 10.0 mi North 8.1 mph - N/A   Clear
7:54 PM 42.1 °F 36.1 °F 32.0 °F 67% 30.01 in 10.0 mi North 10.4 mph - N/A   Clear
8:54 PM 39.9 °F 35.8 °F 32.0 °F 73% 30.03 in 10.0 mi North 5.8 mph - N/A   Clear
9:54 PM 36.0 °F 30.3 °F 30.9 °F 82% 30.06 in 10.0 mi NNW 6.9 mph - N/A   Clear
10:54 PM 36.0 °F 32.1 °F 30.9 °F 82% 30.06 in 10.0 mi NNW 4.6 mph - N/A   Clear
11:54 PM 35.1 °F 30.1 °F 30.9 °F 85% 30.06 in 10.0 mi NNW 5.8 mph - N/A   Clear